User: anonymous   Login
Location: NJAA Observatory
(40.6819°N, 74.8979°W)
Time: 20:18:02
(UTC-04:00)
Language:

Cosmos 2263 Rocket - Orbit

View from above orbital plane
View from above orbital plane
View from above satellite
View from above satellite

Ground track
Ground track

The orbit data is extracted from the following two-line orbital elements,

1 22803U 93059B   14298.47704533 -.00000098  00000-0 -24892-4 0  4069
2 22803 070.9895 124.2915 0015578 050.3762 309.8733 14.16682805 91507
Epoch (UTC): 25 October 2014 11:26:56
Eccentricity: 0.0015578
inclination: 70.9895°
perigee height: 825 km
apogee height: 848 km
right ascension of ascending node: 124.2915°
argument of perigee: 50.3762°
revolutions per day: 14.16682805
mean anomaly at epoch: 309.8733°
orbit number at epoch: 9150

The dashed part of the orbit path shows where the satellite is in the earth's shadow,  

DLR